TimeCST,TemperatureF,Dew PointF,Humidity,Sea Level PressureIn,VisibilityMPH,Wind Direction,Wind SpeedMPH,Gust SpeedMPH,PrecipitationIn,Events,Conditions,WindDirDegrees,DateUTC
6:00 AM,69,64,79,29.86,12,Calm,Calm,,,,Clear,,2013-02-13 12:00:00
6:00 AM,69.8,64.4,83,29.85,-9999.0,Calm,Calm,-,N/A,,Clear,0,2013-02-13 12:00:00
7:00 AM,71.6,64.4,78,29.87,-9999.0,NE,5.8,-,N/A,,Clear,40,2013-02-13 13:00:00
8:00 AM,80.6,66.2,61,29.89,-9999.0,NE,4.6,-,N/A,,Clear,50,2013-02-13 14:00:00
9:00 AM,85,64,40,29.91,12,East,11.5,,,,Clear,90,2013-02-13 15:00:00
9:00 AM,86.0,64.4,48,29.89,-9999.0,East,11.5,-,N/A,,Clear,90,2013-02-13 15:00:00
10:00 AM,87.8,62.6,43,29.89,6.2,NE,11.5,-,N/A,,Partly Cloudy,40,2013-02-13 16:00:00
11:00 AM,89.6,62.6,40,29.87,6.2,East,10.4,-,N/A,,Partly Cloudy,80,2013-02-13 17:00:00
12:00 PM,92,62,27,29.86,12,East,9.2,,,,Partly Cloudy,80,2013-02-13 18:00:00
12:00 PM,93.2,62.6,36,29.84,6.2,East,9.2,-,N/A,,Scattered Clouds,80,2013-02-13 18:00:00
1:00 PM,91.4,60.8,36,29.82,6.2,East,10.4,-,N/A,,Scattered Clouds,80,2013-02-13 19:00:00
2:00 PM,95.0,59.0,30,29.78,6.2,East,8.1,-,N/A,,Scattered Clouds,80,2013-02-13 20:00:00
3:00 PM,88,65,37,29.78,12,NW,11.5,,,,Mostly Cloudy,310,2013-02-13 21:00:00
3:00 PM,87.8,66.2,49,29.76,6.2,NW,11.5,-,N/A,,Mostly Cloudy,310,2013-02-13 21:00:00
4:00 PM,86.0,64.4,48,29.76,6.2,WNW,12.7,-,N/A,,Scattered Clouds,290,2013-02-13 22:00:00
5:00 PM,84.2,66.2,55,29.77,6.2,WNW,92.1,-,N/A,,Scattered Clouds,290,2013-02-13 23:00:00
6:00 PM,84,67,47,29.79,12,WNW,9.2,,,,Partly Cloudy,290,2013-02-14 00:00:00
6:00 PM,84.2,66.2,55,29.78,6.2,WNW,9.2,-,N/A,,Scattered Clouds,290,2013-02-14 00:00:00
7:00 PM,80.6,62.6,54,29.83,6.2,SW,3.5,-,N/A,,Scattered Clouds,230,2013-02-14 01:00:00
8:00 PM,78.8,64.4,61,29.84,6.2,South,4.6,-,N/A,,Partly Cloudy,180,2013-02-14 02:00:00
9:00 PM,77.0,64.4,65,29.87,6.2,ESE,3.5,-,N/A,,Scattered Clouds,120,2013-02-14 03:00:00
10:00 PM,77.0,64.4,65,29.88,6.2,SE,3.5,-,N/A,,Partly Cloudy,140,2013-02-14 04:00:00
11:00 PM,75.2,64.4,69,29.89,6.2,Calm,Calm,-,N/A,,Partly Cloudy,0,2013-02-14 05:00:00